Location: General Nathan Twining Observatory
(34.5931°N, 106.8201°W)
Time: 01:46:25
(UTC-06:00)

Daily predictions for brighter satellites

Satellite Brightness Start Highest point End
(mag) Time Altitude Azimuth Time Altitude Azimuth Time Altitude Azimuth
Cosmos 1980 4.2 00:00:21 10° NNW 00:05:12 50° W 00:05:12 50° W
Cosmos 2237 Rocket 3.0 00:13:15 10° NW 00:17:50 42° W 00:17:50 42° W
Meteor 2-3 Rocket 4.1 00:23:45 60° NNE 00:23:45 60° NNE 00:28:29 10° NNE
ALOS 2 4.2 00:25:45 31° NNE 00:25:45 31° NNE 00:28:14 10° N
H-2A R/B 4.4 00:24:29 10° NNE 00:26:29 28° NNE 00:26:29 28° NNE
COSMOS 2455 3.0 00:27:31 10° NNW 00:32:41 66° NW 00:32:41 66° NW
ATLAS 2AS CENTAUR R/B 4.3 00:38:04 12° WSW 00:44:10 34° NW 00:51:20 10° NNE
Cosmos 2074 Rocket 4.4 00:57:52 53° WNW 00:57:52 53° WNW 01:03:44 10° N
Cosmos 2263 Rocket 3.9 01:00:53 23° ENE 01:00:53 23° ENE 01:03:45 10° NE
Cosmos 2251 Rocket 4.3 00:55:54 10° NNW 00:59:48 48° N 00:59:48 48° N
Nadezhda 3 Rocket 4.3 00:55:52 10° N 01:01:27 58° ENE 01:01:27 58° ENE
CZ-2C R/B 4.5 01:02:40 33° ENE 01:02:40 33° ENE 01:07:36 10° N
H-2A ROCKET BODY 3.8 00:20:52 10° W 01:04:18 62° SSW 01:05:31 59° S
ATLAS 3B R/B 3.1 00:58:58 10° NW 01:04:30 50° W 01:04:30 50° W
SL-16 R/B 3.6 01:06:12 10° NW 01:09:36 30° WNW 01:09:36 30° WNW
USA 238 DEB 3.7 01:06:04 10° NNW 01:13:07 75° ENE 01:13:14 75° ENE
USA 238 3.7 01:06:10 10° NNW 01:13:13 75° ENE 01:13:21 74° ENE
Cosmos 1607 4.3 01:16:28 10° NNW 01:22:24 57° NE 01:22:24 57° NE
Meteor 2-10 Rocket 4.4 01:17:39 10° NNW 01:21:53 48° NW 01:21:53 48° NW
Cosmos 2154 Rocket 4.2 01:26:28 64° NW 01:26:28 64° NW 01:32:10 10° N
CZ-4C R/B 3.5 01:19:02 10° NNW 01:26:01 49° NE 01:28:37 36° ESE
Meteor 1-27 Rocket 4.2 01:22:16 10° N 01:27:12 58° NE 01:27:12 58° NE
CZ-2C R/B 3.3 01:23:53 10° N 01:27:44 50° N 01:27:44 50° N
Cosmos 1943 3.9 01:29:53 10° N 01:35:00 49° NE 01:35:00 49° NE
SL-08 R/B 4.4 02:03:44 81° NNE 02:03:44 81° NNE 02:09:42 10° N
NOSS 3-4 (A) 3.7 02:05:20 62° WNW 02:05:31 62° WNW 02:12:00 10° NNE
NOSS 3-4 (C) 3.7 02:05:26 63° WNW 02:05:36 63° WNW 02:12:06 10° NNE
Cosmos 1959 Rocket 4.5 02:08:59 78° NW 02:08:59 78° NW 02:14:58 10° N
NOSS 3-2 (A) 4.0 02:02:54 10° NNW 02:10:33 79° ENE 02:12:47 52° SE
SL-8 Rocket 4.2 02:14:50 59° WNW 02:14:50 59° WNW 02:20:49 10° N
Cosmos 1371 Rocket 4.4 02:17:28 63° N 02:17:28 63° N 02:21:59 10° NNE
Cosmos 2056 Rocket 3.9 02:18:39 59° NE 02:18:39 59° NE 02:23:03 10° NNE
Cosmos 2218 Rocket 4.1 02:22:46 62° WNW 02:22:46 62° WNW 02:28:51 10° N
Cosmos 1339 Rocket 4.5 02:20:18 10° N 02:26:22 68° E 02:26:45 66° ESE
Meteor 2-19 Rocket 4.3 02:27:52 80° ESE 02:28:00 81° E 02:34:12 10° N
Cosmos 2366 rocket 4.2 02:37:41 53° WNW 02:37:41 53° WNW 02:43:38 10° N
Cosmos 1844 Rocket 3.4 02:39:58 43° ESE 02:40:09 43° ESE 02:45:29 10° NE
Cosmos 2263 Rocket 3.2 02:42:34 34° WNW 02:42:45 35° WNW 02:47:55 10° N
Meteor 2-8 Rocket 4.3 02:38:18 10° N 02:44:23 78° W 02:44:33 77° WSW
RESURS DK-1 4.0 02:48:10 28° NNW 02:48:10 28° NNW 02:50:47 10° N
Cosmos 967 Rocket 4.4 02:47:36 72° S 02:48:15 81° ESE 02:54:45 10° NNE
SL-24 DEB 4.5 02:50:02 10° N 02:54:17 67° ENE 02:54:17 67° ENE
Cosmos 1300 Rocket 4.1 02:55:52 57° NE 02:55:52 57° NE 02:59:30 10° NNE
Cosmos 909 Rocket 4.5 02:58:20 45° W 02:59:39 51° WNW 03:06:36 10° NNE
H-2A R/B 3.9 03:00:50 39° S 03:00:50 39° S 03:22:08 10° SE
Cosmos 1867 4.0 02:56:16 10° NW 03:00:32 49° WNW 03:00:32 49° WNW
Cosmos 2278 Rocket 3.4 03:00:42 28° SE 03:02:01 31° ESE 03:06:57 10° NE
COSMOS 2406 3.5 02:56:36 10° NNW 03:02:21 66° ENE 03:04:27 39° SE
Meteor 1-25 Rocket 4.2 03:02:24 68° WSW 03:02:41 69° W 03:08:27 10° N
Cosmos 1727 Rocket 4.3 02:57:22 10° NNW 03:03:14 46° W 03:03:15 46° W
CBERS 1 LM4 rocket 4.5 02:59:44 10° NNE 03:04:35 64° ESE 03:04:44 63° ESE
IRS-P3 4.2 03:00:13 10° N 03:05:31 63° WNW 03:05:42 62° W
Iridium 4 Rocket 3.9 03:02:10 10° NNW 03:06:08 46° WNW 03:06:08 46° WNW
SL-08 R/B 3.2 03:11:29 83° SSW 03:11:38 86° WSW 03:16:34 10° NNW
CZ-4C R/B 3.6 03:07:58 10° NW 03:13:44 34° W 03:13:44 34° W
Resurs 1-4 Rocket 3.5 03:10:52 10° NE 03:15:31 31° E 03:17:43 23° SE
USA 234 3.2 03:09:47 10° SE 03:16:19 83° NE 03:22:53 10° NW
Cosmos 1633 4.0 03:23:10 30° E 03:23:22 31° E 03:26:34 10° NNE
Cosmos 1452 Rocket 3.5 03:23:16 61° WSW 03:23:47 65° WNW 03:29:02 10° N
ARIANE 5 R/B 2.9 03:22:14 10° NNE 03:27:09 55° E 03:28:34 40° SSE
Cosmos 1934 Rocket 3.9 03:26:46 47° S 03:28:44 88° W 03:34:57 10° N
AQUA 4.2 03:27:45 10° N 03:32:16 45° WNW 03:32:31 45° W
CENTAUR R/B 3.5 03:24:42 10° NNW 03:32:35 64° ENE 03:40:49 10° SE
Cosmos 1536 3.2 03:33:22 53° SE 03:33:52 58° E 03:37:52 10° NNE
ADEOS 3.5 03:29:16 10° N 03:34:28 71° WNW 03:35:31 55° SW
Cosmos 1420 Rocket 4.0 03:33:37 51° S 03:34:57 79° ESE 03:40:15 10° NNE
Okean 1-7 Rocket 3.5 03:30:34 10° NNW 03:35:07 69° W 03:35:20 68° WSW
CBERS-1 4.5 03:31:14 10° N 03:36:05 44° WNW 03:36:47 42° W
Okean 1 Rocket 3.6 03:36:35 43° WNW 03:36:35 43° WNW 03:40:39 10° N
COSMOS 2487 4.4 03:33:35 10° N 03:36:48 29° ENE 03:39:14 14° SE
BREEZE-M DEB (TANK) 4.3 03:40:39 33° SSE 03:41:40 36° SE 03:45:05 10° ENE
Cosmos 1461 3.2 03:41:04 57° S 03:41:56 75° ESE 03:46:36 10° NNE
UNKNOWN OBJECT B 4.3 03:38:42 10° NNE 03:42:24 33° E 03:44:03 24° SE
Cosmos 489 Rocket 4.3 03:41:44 10° NNW 03:47:58 77° WSW 03:51:50 24° S
Okean O Rocket 3.6 03:45:30 10° NE 03:48:53 22° E 03:52:07 11° SE
Gbstr 26 Del rocket 4.0 03:51:08 28° WNW 03:52:04 31° NW 03:55:29 10° NNE
Skynet4D Del rocket 4.0 03:52:09 37° S 03:52:17 37° S 03:57:17 10° ESE
SL-16 R/B 2.7 03:46:48 11° SSE 03:52:50 74° ENE 03:59:04 10° N
ERS-2 4.0 03:52:20 10° NNW 03:54:39 19° WNW 03:54:39 19° WNW
Cosmos 1140 Rocket 3.5 03:52:50 10° NNW 03:58:00 82° ENE 04:02:31 13° SSE
GP-B 4.3 03:54:32 10° NNW 03:58:13 26° W 03:58:13 26° W
EO 1 Del DPAF 3.4 03:57:16 30° SSE 03:59:04 72° ENE 04:02:57 10° N
Meteor 1-19 Rocket 4.2 03:53:49 10° N 03:59:40 84° W 04:03:42 21° S
BREEZE-M TANK 2.5 03:57:44 10° NW 04:00:14 54° NNE 04:03:45 10° ESE
SME Rocket 3.4 03:57:33 17° SSE 04:00:19 57° ENE 04:04:11 10° N
Meteor 2-15 Rocket 4.4 03:55:08 10° N 04:01:19 88° W 04:06:03 18° S
Cosmos 1455 Rocket 3.5 03:59:03 27° SSE 04:01:21 59° E 04:05:45 10° NNE
Cosmos 1605 Rocket 4.0 03:59:56 33° SSW 04:02:49 66° W 04:09:03 10° N
Chunghua 1 4.4 04:03:17 45° W 04:04:21 89° SSW 04:08:07 10° E
NOSS 2-2 (D) 4.2 04:03:31 35° W 04:04:36 42° NW 04:08:58 10° NNE
Cosmos 1025 Rocket 2.9 04:02:30 10° NNW 04:06:46 65° W 04:08:15 38° SSW
Cosmos 1850 Rocket 4.1 04:04:44 10° NNW 04:09:59 80° ENE 04:15:16 10° SSE
OAO 3 Copernicus 4.3 04:08:15 36° SW 04:10:12 68° SSE 04:15:13 10° E
Meteor 1-11 Rocket 4.3 04:08:06 31° SW 04:10:25 45° WNW 04:16:08 10° N
Cosmos 2123 Rocket 4.1 04:04:30 10° NNW 04:10:41 58° W 04:14:33 24° SSW
CZ-2D R/B 2.1 04:05:52 10° N 04:11:20 77° WNW 04:14:23 27° SSW
Cosmos 1741 Rocket 4.1 04:06:32 10° NNW 04:11:50 80° ENE 04:17:04 10° SSE
Cosmos 1400 Rocket 2.9 04:15:58 40° SW 04:17:01 54° W 04:20:52 10° N
USA 129 3.8 04:21:56 17° SE 04:23:05 28° ENE 04:24:58 10° NNE
Cosmos 1844 Rocket 4.2 04:21:38 17° W 04:24:11 23° WNW 04:28:39 10° N
USA 161 3.9 04:25:43 12° WNW 04:25:43 12° WNW 04:26:11 10° NW
Cosmos 1544 Rocket 4.0 04:25:06 29° SW 04:26:54 45° W 04:31:09 10° N
APEX 2.9 04:27:06 32° S 04:28:08 56° ESE 04:31:10 10° NNE
MOS 1-B 4.5 04:24:41 10° N 04:30:24 61° WNW 04:34:25 20° SSW
IRS-1D 4.3 04:28:29 10° N 04:33:02 34° WNW 04:35:33 21° WSW
UNK 4.3 04:28:11 15° WSW 04:34:18 41° NW 04:37:21 10° NNE
Yuri Rocket 3.9 04:33:28 20° WSW 04:36:53 41° S 04:41:13 10° ESE
Meteor 1-23 Rocket 4.4 04:32:15 10° NNW 04:37:48 54° W 04:43:08 11° S
Cosmos 2173 Rocket 3.9 04:33:45 11° S 04:39:43 88° W 04:45:53 10° N
Cosmos 1315 Rocket 3.3 04:41:28 22° SW 04:43:48 45° W 04:47:43 10° N
UNK 4.4 04:41:07 19° SSW 04:43:50 35° W 04:48:04 10° NNW
OTV 4 2.7 04:46:10 12° S 04:46:10 12° S 04:46:38 10° SSE
Cosmos 2297 3.8 04:40:37 18° SW 04:44:46 65° WNW 04:50:26 10° NNE
Cosmos 2278 Rocket 3.2 04:42:34 17° WSW 04:46:00 31° WNW 04:51:00 10° N
CZ-4B R/B 3.5 04:41:35 10° NNE 04:46:06 64° E 04:50:29 10° S
Cosmos 1802 Rocket 4.0 04:40:38 10° S 04:46:47 88° W 04:52:56 10° N
CZ-4B DEB 4.4 04:42:44 10° NNE 04:48:19 74° ESE 04:53:51 10° S
ATLAS 5 CENTAUR R/B 2.5 04:46:13 10° NNW 04:52:21 90° WSW 04:58:51 10° SSE
Resurs 1-4 Rocket 3.2 04:50:46 10° NNW 04:55:12 28° WNW 04:58:48 14° WSW
Cosmos 1459 Rocket 4.1 04:49:21 10° SSW 04:55:38 63° W 05:01:55 10° N
BREEZE M DEB (TANK) 4.4 04:34:55 10° NW 04:55:52 60° SW 05:00:45 10° SSE
Cosmos 614 Rocket 4.4 04:51:42 10° NNW 04:56:32 41° WSW 05:01:17 10° S
Meteor 1-12 Rocket 4.3 04:50:52 10° SSW 04:56:46 74° W 05:02:34 10° N
IRS-1C Rocket 4.3 04:52:02 10° N 04:57:11 56° WNW 05:02:07 11° SSW
Cosmos 2100 Rocket 4.2 04:52:27 11° SSW 04:58:23 55° W 05:04:34 10° N
MOZ.5/SAFIR/RUBIN 5/SL-8 3.9 04:54:07 10° SSE 04:58:52 88° E 05:03:41 10° NNW
Cosmos 1975 2.8 04:55:14 10° SSW 04:59:08 69° W 05:03:07 10° N
Cosmos 1346 Rocket 3.7 04:55:39 10° N 04:59:38 53° E 05:03:32 10° SSE
Okean 2 4.3 04:56:06 10° NNW 04:59:40 29° W 05:02:50 12° SSW
USA 234 4.3 04:54:57 10° S 04:59:41 21° WSW 05:04:27 10° WNW
Cosmos 1174 4.2 05:00:04 10° NNW 05:03:29 52° ENE 05:06:27 10° SE
CZ-4B R/B 3.3 04:59:57 10° N 05:05:36 69° WNW 05:11:12 10° SSW
ARIANE 5 R/B 4.4 05:03:04 10° NNW 05:05:46 15° WNW 05:08:29 10° W
Cosmos 2082 Rocket 2.3 05:02:22 10° NNW 05:08:07 86° ENE 05:13:48 10° SSE
Cosmos 1743 4.0 05:06:22 10° SSE 05:09:59 42° E 05:13:37 10° NNE
Orbus 21S 4.1 05:03:19 10° WSW 05:10:06 23° SSW 05:12:48 10° SSE
BREEZE-M DEB (TANK) 2.9 05:08:18 10° W 05:10:53 35° NNW 05:13:59 10° NE
COSMOS 2487 4.5 05:10:33 10° WNW 05:12:05 12° W 05:13:12 11° WSW
Okean-O 2.9 05:09:46 10° NNE 05:14:12 70° ESE 05:18:36 10° S
PSLV R/B 4.0 05:13:56 11° SW 05:17:02 41° SSE 05:20:12 10° ENE
Thor Agena Rocket 3.6 05:12:18 10° S 05:17:27 63° WSW 05:22:34 10° NNW
Cosmos 1500 3.2 05:14:26 10° SSW 05:18:18 73° W 05:22:11 10° N
ADEOS II 2.9 05:14:29 10° NNE 05:19:39 53° E 05:24:45 10° S
Cosmos 1515 3.6 05:16:14 10° N 05:20:04 84° W 05:23:53 10° S
Timation 1 Rocket 4.4 05:15:43 10° SSW 05:21:42 75° WNW 05:27:44 10° NNE
Timation 2 Rocket 4.3 05:16:35 10° NW 05:22:11 39° WSW 05:27:40 10° S
CENTAUR R/B 3.9 05:16:26 10° NW 05:22:55 27° WSW 05:29:31 10° SSW
Cosmos 1602 Rocket 4.1 05:20:05 10° NNW 05:24:05 37° W 05:28:04 10° SSW
Okean O Rocket 2.8 05:21:36 10° NNW 05:25:11 26° WNW 05:28:47 10° SW
Tsikada Rocket 4.2 05:19:35 10° N 05:25:47 80° E 05:31:58 10° S
CZ-3 Stage 3 4.1 04:54:05 10° WSW 05:28:46 61° S 05:34:38 10° E
